Regional Weather Roundup
Issued by NWS

Home | Current Version | Previous Version | Graphics & Text | Print | Product List | Glossary On
Versions: 1 2 3 4 5 6 7 8 9 10 11 12 13 14 15 16 17 18 19 20 21 22 23 24 25 26 27 28 29 30 31 32 33 34 35 36 37 38 39 40 41 42 43 44 45 46 47 48 49 50
000
ASUS43 KBIS 192010
RWRND

NORTH DAKOTA REGIONAL WEATHER ROUNDUP
NATIONAL WEATHER SERVICE BISMARCK ND
200 PM CST FRI JAN 19 2018

NOTE: "FAIR" INDICATES FEW OR NO CLOUDS BELOW 12,000 FEET WITH NO
SIGNIFICANT WEATHER AND/OR OBSTRUCTIONS TO VISIBILITY.


NDZ001>003-009>011-017-192100-
NORTHWEST NORTH DAKOTA

CITY           SKY/WX    TMP DP  RH WIND       PRES   REMARKS
WILLISTON      SUNNY     39  23  52 W14       29.60F
MINOT          CLOUDY    42  29  59 W8        29.55R
MINOT AFB      PTSUNNY   41  30  65 W13       29.54R
$$

NDZ018>021-031>035-040>046-192100-
SOUTHWEST NORTH DAKOTA

CITY           SKY/WX    TMP DP  RH WIND       PRES   REMARKS
BISMARCK       CLOUDY    43  32  65 W12       29.62R
DICKINSON      PTSUNNY   39  31  72 W16       29.60F
GARRISON         N/A     40  31  70 W9        29.58R
HETTINGER ARPT PTSUNNY   38  31  76 W14       29.66F
$$

NDZ004>008-012>016-024-026-027-054-192100-
NORTHEAST NORTH DAKOTA

CITY           SKY/WX    TMP DP  RH WIND       PRES   REMARKS
GRAND FORKS    PTSUNNY   39  32  76 NW8       29.48R
GRND FRKS AFB  FAIR      41  31  68 NW9       29.48R
DEVILS LAKE    FAIR      38  30  73 W15         N/A
$$

NDZ022-023-025-028>030-036>039-047>053-192100-
SOUTHEAST NORTH DAKOTA

CITY           SKY/WX    TMP DP  RH WIND       PRES   REMARKS
FARGO          FAIR      40  32  73 W7        29.51R
JAMESTOWN      CLOUDY    42  31  64 NW15      29.53S
$$





USA.gov is the U.S. government's official web portal to all federal, state and local government web resources and services.